Вернуться в каталог

ARIANE 5 R/B

АктивенHEO
NORAD 29275·ROCKET BODY·🇫🇷 France

Запущен Aug 11, 2006 с Guiana Space Centre

Loading…

Ближайшие Пролёты (ближайшие 24 часа)

TLE

СвежийSource: Space-Track

Эпоха: Sep 14, 2026, 11:16 UTC

1 29275U 06033D   26257.46969993  .00001186  00000-0  48459-3 0  9993
2 29275   6.3969  45.7899 6958831 246.3452  29.7205  2.68020211179800

Отслеживайте ARIANE 5 R/B в реальном времени с AllMySat

Download on the App Store